Weather History for Fryeburg, ME

Change the Weather History Date:

Friday, March 2, 2012

  Actual Average Record
Temperature  
Mean Temperature 18 °F -  
Max Temperature 27 °F 34 °F 55 °F (1997)
Min Temperature 8 °F 13 °F -9 °F (2001)
Degree Days  
Heating Degree Days 48    
Moisture  
Dew Point 16 °F    
Average Humidity 77    
Maximum Humidity 88    
Minimum Humidity 65    
Precipitation  
Precipitation 0.00 in - - ()
Sea Level Pressure  
Sea Level Pressure 30.12 in    
Wind  
Wind Speed 2 mph (SSW)    
Max Wind Speed 5 mph    
Max Gust Speed -    
Visibility 10 miles    
Events Snow    
Averages and records for this station are not official NWS values.
T = Trace of Precipitation, MM = Missing Value Source: NWS Daily Summary

Daily Weather History Graph

Daily Weather History Graph

Search for Another Location

Airport:

Trip Planner

Search our weather history database for the weather conditions in past years. The results will help you decide how hot, cold, wet, or windy it might be!

Date:

Astronomy

Mar. 02, 2012 Rise Set
Actual Time 6:18 AM EST 5:34 PM EST
Civil Twilight 5:49 AM EST 6:03 PM EST
Nautical Twilight 5:15 AM EST 6:36 PM EST
Astronomical Twilight 4:42 AM EST 7:09 PM EST
Moon 11:34 AM EST (3/2) 2:15 AM EST (3/2)
Length of Visible Light 12h 13m
Length of Day
11h 15m
Waxing Gibbous, 66% of the Moon is Illuminated
Mar 2
Waxing Gibbous
Mar 8
Full
Mar 14
Last Quarter
Mar 22
New
Mar 30
First Quarter

Hourly Weather History & Observations

Time (EST) Temp. Windchill Dew Point Humidity Pressure Visibility Wind Dir Wind Speed Gust Speed Precip Events Conditions
12:54 AM 18.0 °F 11.1 °F 12.0 °F 78% 30.11 in 9.0 mi NNE 4.6 mph - 0.00 in Snow Light Snow
1:54 AM 17.1 °F 11.7 °F 10.9 °F 77% 30.12 in 10.0 mi North 3.5 mph - 0.00 in   Overcast
2:54 AM 17.1 °F 11.7 °F 10.9 °F 77% 30.12 in 10.0 mi North 3.5 mph - N/A   Overcast
3:54 AM 17.1 °F 11.7 °F 10.9 °F 77% 30.13 in 10.0 mi NE 3.5 mph - N/A   Overcast
4:54 AM 16.0 °F - 12.0 °F 84% 30.15 in 10.0 mi Calm Calm - N/A   Overcast
5:54 AM 10.0 °F - 7.0 °F 87% 30.15 in 10.0 mi Calm Calm - N/A   Partly Cloudy
6:54 AM 8.1 °F - 5.0 °F 87% 30.16 in 10.0 mi Calm Calm - N/A   Partly Cloudy
7:54 AM 18.0 °F - 12.9 °F 81% 30.18 in 10.0 mi Calm Calm - N/A   Overcast
8:54 AM 19.9 °F - 12.9 °F 74% 30.18 in 10.0 mi Calm Calm - N/A   Overcast
9:54 AM 23.0 °F - 14.0 °F 68% 30.17 in 10.0 mi Calm Calm - N/A   Overcast
10:54 AM 24.1 °F - 14.0 °F 65% 30.17 in 10.0 mi Calm Calm - N/A   Overcast
11:54 AM 26.1 °F - 16.0 °F 66% 30.16 in 10.0 mi Calm Calm - N/A   Overcast
12:54 PM 26.1 °F - 17.1 °F 69% 30.14 in 10.0 mi Calm Calm - N/A   Overcast
1:54 PM 27.0 °F 23.0 °F 17.1 °F 66% 30.13 in 10.0 mi SW 3.5 mph - N/A   Overcast
2:54 PM 27.0 °F 21.6 °F 18.0 °F 69% 30.14 in 10.0 mi SSW 4.6 mph - N/A   Overcast
3:54 PM 27.0 °F 23.0 °F 18.0 °F 69% 30.12 in 10.0 mi Variable 3.5 mph - N/A   Overcast
4:54 PM 27.0 °F - 19.0 °F 72% 30.12 in 10.0 mi Calm Calm - N/A   Overcast
5:54 PM 26.1 °F - 19.0 °F 75% 30.13 in 10.0 mi Calm Calm - N/A   Overcast
6:54 PM 25.0 °F - 19.9 °F 81% 30.13 in 10.0 mi Calm Calm - N/A   Overcast
7:18 PM 24.8 °F 20.5 °F 19.4 °F 80% 30.10 in 10.0 mi South 3.5 mph - N/A   Overcast
7:54 PM 26.1 °F 21.9 °F 19.9 °F 78% 30.10 in 10.0 mi South 3.5 mph - N/A   Overcast
8:54 PM 25.0 °F 19.3 °F 19.9 °F 81% 30.12 in 10.0 mi South 4.6 mph - N/A   Overcast
9:50 PM 24.8 °F 20.5 °F 21.2 °F 86% 30.06 in 10.0 mi SSW 3.5 mph - N/A   Overcast
9:54 PM 25.0 °F 20.7 °F 21.0 °F 85% 30.09 in 10.0 mi SSW 3.5 mph - N/A   Overcast
10:54 PM 25.0 °F - 21.9 °F 88% 30.04 in 10.0 mi Calm Calm - N/A   Overcast
11:54 PM 25.0 °F - 21.9 °F 88% 30.02 in 10.0 mi Calm Calm - N/A   Overcast